[[{"header":{"parameterUnit":"m.s-1","parameterCategory":2,"la1":30.2991,"la2":30.254,"lo1":-89.0895,"lo2":-89.0444,"dy":0.0017,"dx":0.0017,"nx":28,"ny":28,"refTime":"2023-03-31T21:00:00:Z","depth":"0","parameterNumber":2,"parameterNumberName":"U-component_of_CURRENTS"},"data":[0,0,0,0,0,0,0,0,0,0,0,0,0,0,0,0,0,0,0,0,0,0,0,0,0,0,0,0,0,0,0,0,0,0,0,0,0,0,0,0,0,0,0,0,0,0,0,0,0,0,0,0,0,0,0,0,0,0,0.1805,0.1806,0,0.1837,0.1837,0.1837,0.181,0.1809,0.1808,0.1807,0.1775,0.1774,0.1774,0,0,0,0,0,0,0,0,0,0,0,0,0,0.1701,0.1703,0.1805,0.1806,0.1807,0.1837,0.1837,0.1837,0.181,0.1809,0.1808,0.1807,0.1775,0.1774,0.1774,0,0,0,0,0,0,0,0,0,0,0,0,0,0.1738,0.1703,0.1805,0.1799,0.1799,0.1837,0.1837,0.1837,0.181,0.1809,0.1807,0.1806,0.1775,0.1774,0.1774,0.18,0,0,0.1774,0.1774,0,0,0,0,0,0,0,0,0.1736,0.1742,0.1799,0.1799,0.1799,0.182,0.1788,0.1823,0.181,0.1803,0.1807,0.1806,0.1787,0.1786,0.1791,0.1799,0.1797,0.1774,0.1774,0.1774,0.1774,0,0,0,0,0,0,0,0.1733,0.174,0.1815,0.18,0.18,0.1787,0.1791,0.1795,0.1798,0.1803,0.1802,0.1811,0.1786,0.1792,0.179,0.1797,0.1774,0.1774,0.1774,0.1774,0.1857,0.1859,0,0,0,0,0,0,0.1738,0.1738,0.1814,0.1816,0.1767,0.1791,0.1795,0.1813,0.18,0.1798,0.1812,0.1809,0.1792,0.179,0.1789,0.1844,0.1774,0.1774,0.1774,0.1855,0.1857,0.186,0,0,0,0,0,0,0.1736,0.1745,0.1813,0.1779,0.1787,0.1794,0.1815,0.1814,0.1823,0.1807,0.1803,0.1822,0.1791,0.1789,0.1803,0.1841,0.1774,0.1774,0.1852,0.1856,0.1859,0.1937,0,0,0,0,0,0,0.1733,0.1744,0.1758,0.178,0.1789,0.1846,0.1816,0.1816,0.1832,0.1829,0.1815,0.181,0.179,0.1803,0.1803,0.184,0.1774,0.1849,0.1854,0.1858,0.1932,0.1943,0.1953,0,0,0,0,0,0.1729,0.1754,0.1759,0.1768,0.1809,0.1847,0.1851,0.1849,0.1834,0.1849,0.1839,0.1811,0.183,0.1805,0.1804,0.1842,0.1847,0.1852,0.1857,0.1927,0.1941,0.1952,0,0,0,0,0,0,0.1709,0.1755,0.176,0.1795,0.1825,0.1844,0.1859,0.1859,0.1865,0.1857,0.1833,0.183,0.1855,0.1844,0.1817,0.1881,0.1837,0.1842,0.1891,0.1903,0.1914,0.1902,0.1774,0,0,0,0,0,0.1715,0.1747,0.1785,0.1812,0.1832,0.1848,0.1862,0.1866,0.1875,0.1876,0.1871,0.187,0.1878,0.1885,0.1886,0.1921,0.1918,0.1949,0.1959,0.1968,0.1961,0.2002,0.2015,0.1876,0.1876,0.1876,0,0,0.1709,0.1742,0.1756,0.181,0.1831,0.1864,0.1853,0.1884,0.1905,0.1872,0.1899,0.19,0.1894,0.193,0.1943,0.1924,0.2011,0.1974,0.1982,0.1969,0.2009,0.2022,0.2034,0.188,0.1879,0.1879,0,0,0.1717,0.1752,0.178,0.1815,0.1861,0.1879,0.1892,0.1926,0.1937,0.197,0.1953,0.1981,0.1993,0.2005,0.2008,0.2081,0.2058,0.2088,0.2135,0.2177,0.2188,0.2198,0.2226,0.2238,0.2099,0.21,0.21,0,0.17,0.1752,0.1792,0.1833,0.186,0.1888,0.192,0.1946,0.1977,0.1993,0.1985,0.2028,0.2029,0.2072,0.2101,0.2103,0.2115,0.2086,0.2189,0.2198,0.2207,0.2234,0.2246,0.2104,0.2103,0.2103,0.2103,0,0.1736,0.1775,0.1799,0.186,0.1895,0.1932,0.1977,0.2011,0.203,0.205,0.2099,0.2115,0.2135,0.216,0.2151,0.2222,0.2207,0.2191,0.2153,0.2225,0.225,0.2261,0.211,0.2109,0.2107,0.2106,0,0,0.1682,0.1799,0.1801,0.1837,0.1914,0.1943,0.1997,0.2052,0.2076,0.2126,0.2162,0.2214,0.2222,0.2228,0.2237,0.2286,0.2373,0.2271,0.2272,0.2292,0.246,0.2468,0.248,0.2376,0.2378,0.2379,0.2458,0,0.1687,0.1768,0.1822,0.1881,0.1926,0.198,0.2024,0.2076,0.2117,0.2161,0.2207,0.2238,0.2248,0.2263,0.2318,0.2342,0.2402,0.2352,0.2393,0.2394,0.2386,0.2494,0.2525,0.2599,0.2468,0.247,0.2471,0,0.1686,0.175,0.1815,0.1904,0.1925,0.1958,0.203,0.2073,0.2147,0.2179,0.2234,0.2258,0.2331,0.2328,0.2428,0.2394,0.2439,0.2468,0.2472,0.2453,0.2422,0.2504,0.2623,0.2666,0.2487,0.2486,0.2485,0,0.1628,0.1729,0.1782,0.1816,0.1924,0.1951,0.1997,0.2071,0.2107,0.2185,0.2216,0.2294,0.233,0.2402,0.2469,0.2453,0.2574,0.2553,0.2609,0.2608,0.2628,0.2626,0.2783,0.2644,0.2644,0.2644,0.2643,0,0.1608,0.1641,0.1758,0.1789,0.1835,0.1917,0.1958,0.2014,0.2089,0.2132,0.2211,0.2257,0.2353,0.2429,0.2487,0.2584,0.2592,0.2637,0.2642,0.2659,0.2659,0.2687,0.2705,0.2647,0.2646,0.2645,0.2645,0,0.1524,0.1608,0.1668,0.1781,0.181,0.1835,0.1926,0.1961,0.2038,0.2096,0.2122,0.2238,0.2343,0.244,0.2557,0.2605,0.2692,0.2725,0.2733,0.2739,0.2815,0.2836,0.2808,0.278,0.2801,0.2802,0.2803,0,0.1492,0.1518,0.1633,0.1666,0.1712,0.1771,0.1812,0.1913,0.1957,0.2081,0.2106,0.2231,0.2323,0.2503,0.2623,0.2749,0.2732,0.2843,0.2825,0.2852,0.2879,0.2728,0.2695,0.289,0.2891,0.2892,0.2893,0,0.1419,0.1455,0.151,0.1587,0.1637,0.1698,0.1769,0.1801,0.192,0.1987,0.2092,0.2176,0.2375,0.2539,0.2711,0.2789,0.2816,0.2869,0.2911,0.2986,0.2818,0.2783,0.2789,0.2903,0.2902,0.2902,0.2901,0.2901,0.1343,0.1358,0.1438,0.1494,0.1562,0.1627,0.1652,0.1747,0.1823,0.1928,0.2037,0.2172,0.2444,0.2697,0.2805,0.3004,0.2875,0.3037,0.3068,0.2913,0.2871,0.289,0.2995,0.2994,0.2994,0.2993,0.2993,0,0.1247,0.1289,0.1347,0.1428,0.1472,0.1541,0.1624,0.1649,0.1725,0.187,0.1974,0.2265,0.2522,0.2774,0.3064,0.318,0.3094,0.3224,0.3065,0.3029,0.31,0.3093,0.3206,0.3206,0.3206,0.3206,0.3206,0.3206,0.1204,0.1224,0.1268,0.1322,0.138,0.1418,0.1454,0.1513,0.1614,0.1781,0.1954,0.2123,0.2497,0.3033,0.3325,0.3352,0.326,0.3236,0.3186,0.333,0.3315,0.3299,0.3298,0.3453,0.3453,0.3024,0.3022,0.3021]},{"header":{"parameterUnit":"m.s-1","parameterCategory":2,"la1":30.2991,"la2":30.254,"lo1":-89.0895,"lo2":-89.0444,"dy":0.0017,"dx":0.0017,"nx":28,"ny":28,"refTime":"2023-03-31T21:00:00:Z","depth":"0","parameterNumber":3,"parameterNumberName":"V-component_of_CURRENTS"},"data":[0,0,0,0,0,0,0,0,0,0,0,0,0,0,0,0,0,0,0,0,0,0,0,0,0,0,0,0,0,0,0,0,0,0,0,0,0,0,0,0,0,0,0,0,0,0,0,0,0,0,0,0,0,0,0,0,0,0,-0.1871,-0.1871,0,-0.1869,-0.1869,-0.1868,-0.1892,-0.1893,-0.1893,-0.1894,-0.1863,-0.1861,-0.186,0,0,0,0,0,0,0,0,0,0,0,0,0,-0.1868,-0.1868,-0.1871,-0.1871,-0.1872,-0.1869,-0.1869,-0.1868,-0.1892,-0.1893,-0.1894,-0.1895,-0.1863,-0.1861,-0.1859,0,0,0,0,0,0,0,0,0,0,0,0,0,-0.1866,-0.1868,-0.1871,-0.1885,-0.1886,-0.1869,-0.1869,-0.1868,-0.1891,-0.1893,-0.1894,-0.1895,-0.1864,-0.1862,-0.1859,-0.1819,0,0,-0.1852,-0.1851,0,0,0,0,0,0,0,0,-0.1866,-0.1866,-0.1882,-0.1884,-0.1885,-0.1884,-0.1856,-0.1851,-0.1891,-0.1887,-0.1894,-0.1896,-0.1868,-0.1865,-0.1859,-0.1817,-0.1816,-0.1851,-0.185,-0.1849,-0.1848,0,0,0,0,0,0,0,-0.1866,-0.1866,-0.1868,-0.1883,-0.1884,-0.1881,-0.1882,-0.1855,-0.1868,-0.1887,-0.189,-0.1892,-0.1868,-0.1861,-0.1858,-0.1815,-0.1852,-0.1849,-0.1848,-0.1847,-0.1761,-0.1761,0,0,0,0,0,0,-0.1871,-0.1866,-0.1868,-0.1868,-0.1881,-0.1881,-0.1882,-0.1881,-0.1869,-0.1869,-0.1891,-0.1894,-0.1865,-0.1861,-0.1857,-0.1828,-0.1849,-0.1847,-0.1845,-0.1762,-0.1761,-0.176,0,0,0,0,0,0,-0.1871,-0.1871,-0.1868,-0.1869,-0.1869,-0.188,-0.1879,-0.188,-0.1878,-0.1873,-0.1872,-0.1888,-0.1866,-0.1861,-0.1838,-0.1826,-0.1846,-0.1843,-0.1763,-0.1762,-0.1761,-0.1756,0,0,0,0,0,0,-0.1871,-0.1871,-0.186,-0.1869,-0.1869,-0.1855,-0.1878,-0.188,-0.1878,-0.1881,-0.1869,-0.1868,-0.1866,-0.1842,-0.1835,-0.1823,-0.1841,-0.1764,-0.1763,-0.1761,-0.1757,-0.1754,-0.1752,0,0,0,0,0,-0.1871,-0.1847,-0.186,-0.186,-0.1858,-0.1855,-0.1853,-0.1864,-0.1877,-0.1867,-0.1866,-0.1868,-0.1828,-0.1839,-0.1832,-0.1818,-0.1765,-0.1763,-0.1761,-0.1758,-0.1755,-0.1752,0,0,0,0,0,0,-0.183,-0.1848,-0.1862,-0.1843,-0.1851,-0.1859,-0.1846,-0.1859,-0.185,-0.1851,-0.1853,-0.1851,-0.1828,-0.1818,-0.183,-0.1789,-0.1797,-0.1794,-0.1797,-0.1794,-0.1792,-0.1783,-0.1839,0,0,0,0,0,-0.182,-0.1814,-0.1832,-0.1817,-0.1819,-0.1833,-0.183,-0.1841,-0.1841,-0.1839,-0.1835,-0.1826,-0.1811,-0.1801,-0.1785,-0.1755,-0.1752,-0.1742,-0.174,-0.1738,-0.1726,-0.1727,-0.1724,-0.1754,-0.1754,-0.1754,0,0,-0.1799,-0.1809,-0.1805,-0.1809,-0.1814,-0.1807,-0.1833,-0.1827,-0.1819,-0.1833,-0.1812,-0.1814,-0.1802,-0.1778,-0.1766,-0.177,-0.1726,-0.1736,-0.1735,-0.1723,-0.1724,-0.1722,-0.1719,-0.1753,-0.1753,-0.1754,0,0,-0.1761,-0.1767,-0.1753,-0.1757,-0.1768,-0.1778,-0.1778,-0.1789,-0.1789,-0.1773,-0.1786,-0.1782,-0.1754,-0.1751,-0.1744,-0.1713,-0.1716,-0.1709,-0.1687,-0.1688,-0.1686,-0.1684,-0.1672,-0.1669,-0.1706,-0.1706,-0.1706,0,-0.1731,-0.1725,-0.1745,-0.1735,-0.1734,-0.1766,-0.1751,-0.175,-0.1753,-0.1746,-0.1764,-0.1741,-0.174,-0.1714,-0.1713,-0.1708,-0.1706,-0.1703,-0.1687,-0.1685,-0.1683,-0.1671,-0.1667,-0.1706,-0.1706,-0.1706,-0.1706,0,-0.1695,-0.1685,-0.1674,-0.168,-0.1678,-0.1668,-0.1683,-0.1681,-0.1694,-0.1698,-0.1682,-0.169,-0.1679,-0.1682,-0.1689,-0.167,-0.1672,-0.1688,-0.1698,-0.168,-0.1668,-0.1664,-0.1705,-0.1705,-0.1706,-0.1706,0,0,-0.1631,-0.1645,-0.1639,-0.1636,-0.1649,-0.1643,-0.1633,-0.1628,-0.1618,-0.1627,-0.1609,-0.1608,-0.1626,-0.1619,-0.1634,-0.1639,-0.1632,-0.1657,-0.1657,-0.165,-0.1624,-0.1633,-0.163,-0.1652,-0.1652,-0.1651,-0.162,0,-0.1592,-0.1571,-0.1587,-0.1559,-0.155,-0.1575,-0.1561,-0.1562,-0.1572,-0.1561,-0.1575,-0.1564,-0.1596,-0.16,-0.1609,-0.1624,-0.1623,-0.1638,-0.1636,-0.1635,-0.1651,-0.1627,-0.1632,-0.1605,-0.1617,-0.1616,-0.1616,0,-0.1546,-0.1542,-0.1515,-0.151,-0.1505,-0.1494,-0.1488,-0.1478,-0.1478,-0.1485,-0.149,-0.1506,-0.1507,-0.1547,-0.1558,-0.1568,-0.1589,-0.1607,-0.1607,-0.1613,-0.1638,-0.1625,-0.1599,-0.1629,-0.1611,-0.1611,-0.1612,0,-0.1499,-0.1483,-0.1464,-0.1461,-0.1463,-0.1451,-0.1448,-0.1451,-0.1434,-0.1437,-0.1432,-0.1444,-0.1445,-0.1477,-0.1521,-0.1539,-0.1536,-0.1566,-0.1587,-0.1588,-0.1588,-0.159,-0.1595,-0.1569,-0.1569,-0.1569,-0.1569,0,-0.1448,-0.1425,-0.144,-0.1426,-0.1393,-0.1408,-0.1375,-0.1379,-0.1373,-0.1343,-0.1386,-0.1371,-0.1431,-0.1444,-0.149,-0.1521,-0.151,-0.157,-0.1579,-0.1585,-0.1587,-0.1611,-0.1577,-0.1568,-0.1568,-0.1568,-0.1568,0,-0.139,-0.1403,-0.1376,-0.1375,-0.1371,-0.1344,-0.1327,-0.1305,-0.1311,-0.1278,-0.1276,-0.1301,-0.132,-0.1377,-0.142,-0.1474,-0.1551,-0.1525,-0.1523,-0.1533,-0.1593,-0.1557,-0.1655,-0.175,-0.154,-0.154,-0.154,0,-0.1358,-0.1342,-0.1334,-0.1315,-0.131,-0.1283,-0.1264,-0.1269,-0.125,-0.1231,-0.1208,-0.1221,-0.1224,-0.129,-0.139,-0.146,-0.1533,-0.1516,-0.1557,-0.1583,-0.155,-0.1664,-0.1747,-0.1549,-0.155,-0.155,-0.155,0,-0.129,-0.1292,-0.127,-0.1243,-0.122,-0.1195,-0.1171,-0.1151,-0.115,-0.1128,-0.1099,-0.1098,-0.1175,-0.1248,-0.1358,-0.1426,-0.1578,-0.152,-0.155,-0.1548,-0.1668,-0.1769,-0.1575,-0.155,-0.155,-0.155,-0.155,-0.155,-0.1228,-0.12,-0.1181,-0.1144,-0.1128,-0.1099,-0.1057,-0.1049,-0.1009,-0.0954,-0.0989,-0.0952,-0.1091,-0.1246,-0.1367,-0.1539,-0.1585,-0.1588,-0.1537,-0.1653,-0.176,-0.1561,-0.1553,-0.1553,-0.1553,-0.1553,-0.1552,0,-0.113,-0.111,-0.1081,-0.1038,-0.1002,-0.1023,-0.0983,-0.0934,-0.0877,-0.0849,-0.0819,-0.0832,-0.099,-0.1168,-0.1374,-0.1507,-0.1716,-0.1581,-0.1721,-0.1805,-0.1611,-0.1627,-0.1632,-0.1632,-0.1632,-0.1632,-0.1632,-0.1632,-0.107,-0.1012,-0.1002,-0.0919,-0.09,-0.0832,-0.0801,-0.0749,-0.0712,-0.0618,-0.0572,-0.057,-0.06,-0.0984,-0.1288,-0.1418,-0.1652,-0.1704,-0.1803,-0.159,-0.1588,-0.1586,-0.1599,-0.1598,-0.1598,-0.2128,-0.213,-0.2132]}],[{"header":{"parameterUnit":"m.s-1","parameterCategory":2,"la1":30.2991,"la2":30.254,"lo1":-89.0895,"lo2":-89.0444,"dy":0.0017,"dx":0.0017,"nx":28,"ny":28,"refTime":"2023-03-31T21:00:00:Z","depth":"2","parameterNumber":2,"parameterNumberName":"U-component_of_CURRENTS"},"data":[0,0,0,0,0,0,0,0,0,0,0,0,0,0,0,0,0,0,0,0,0,0,0,0,0,0,0,0,0,0,0,0,0,0,0,0,0,0,0,0,0,0,0,0,0,0,0,0,0,0,0,0,0,0,0,0,0,0,-0.0563,-0.0562,0,-0.0544,-0.0544,-0.0543,-0.0544,-0.0544,-0.0545,-0.0545,-0.0531,-0.0531,-0.053,0,0,0,0,0,0,0,0,0,0,0,0,0,-0.0604,-0.0603,-0.0563,-0.0562,-0.0562,-0.0544,-0.0544,-0.0543,-0.0544,-0.0544,-0.0545,-0.0545,-0.0531,-0.0531,-0.053,0,0,0,0,0,0,0,0,0,0,0,0,0,-0.0586,-0.0603,-0.0563,-0.056,-0.056,-0.0544,-0.0544,-0.0543,-0.0544,-0.0544,-0.0545,-0.0545,-0.0532,-0.0531,-0.053,-0.0516,0,0,-0.0527,-0.0527,0,0,0,0,0,0,0,0,-0.0587,-0.0584,-0.0561,-0.0561,-0.056,-0.0547,-0.0553,-0.0534,-0.0544,-0.055,-0.0545,-0.0545,-0.0537,-0.0535,-0.0531,-0.0515,-0.0515,-0.0527,-0.0526,-0.0526,-0.0526,0,0,0,0,0,0,0,-0.0588,-0.0585,-0.0555,-0.0561,-0.056,-0.0562,-0.056,-0.055,-0.0541,-0.055,-0.055,-0.0547,-0.0537,-0.0532,-0.053,-0.0515,-0.0527,-0.0526,-0.0526,-0.0525,-0.0441,-0.0439,0,0,0,0,0,0,-0.059,-0.0586,-0.0556,-0.0555,-0.0575,-0.0561,-0.0558,-0.0551,-0.0541,-0.054,-0.0547,-0.0548,-0.0533,-0.0532,-0.053,-0.0465,-0.0526,-0.0525,-0.0525,-0.0442,-0.044,-0.0439,0,0,0,0,0,0,-0.059,-0.0587,-0.0557,-0.057,-0.0567,-0.056,-0.0551,-0.055,-0.0534,-0.054,-0.0539,-0.0531,-0.0533,-0.0531,-0.0504,-0.0467,-0.0525,-0.0524,-0.0444,-0.0442,-0.0439,-0.0366,0,0,0,0,0,0,-0.0592,-0.0587,-0.0571,-0.057,-0.0566,-0.0534,-0.0551,-0.0549,-0.0533,-0.0533,-0.0525,-0.0525,-0.0533,-0.0505,-0.0503,-0.0466,-0.0523,-0.0447,-0.0443,-0.044,-0.0371,-0.0362,-0.0354,0,0,0,0,0,-0.0593,-0.0569,-0.057,-0.0566,-0.0548,-0.0533,-0.053,-0.0527,-0.0531,-0.0516,-0.051,-0.0525,-0.0484,-0.0503,-0.0501,-0.0463,-0.0448,-0.0444,-0.0441,-0.0375,-0.0364,-0.0354,0,0,0,0,0,0,-0.0568,-0.0566,-0.0568,-0.0542,-0.0533,-0.0533,-0.0511,-0.0516,-0.0499,-0.0493,-0.0505,-0.0504,-0.0465,-0.0474,-0.0495,-0.0429,-0.0467,-0.0463,-0.0418,-0.0407,-0.0399,-0.0379,-0.0522,0,0,0,0,0,-0.0558,-0.054,-0.0542,-0.0515,-0.0509,-0.0508,-0.0498,-0.0498,-0.0489,-0.0481,-0.0477,-0.0466,-0.0449,-0.0437,-0.0426,-0.039,-0.0376,-0.0363,-0.0354,-0.0347,-0.0328,-0.0278,-0.0263,-0.0426,-0.0426,-0.0426,0,0,-0.0538,-0.0535,-0.0522,-0.0509,-0.0499,-0.0478,-0.0502,-0.0477,-0.0453,-0.0481,-0.0437,-0.0436,-0.0433,-0.0392,-0.0375,-0.0394,-0.0291,-0.0342,-0.0336,-0.0321,-0.0272,-0.0256,-0.0242,-0.0424,-0.0424,-0.0424,0,0,-0.0496,-0.0487,-0.0463,-0.0454,-0.044,-0.0439,-0.0429,-0.0421,-0.0408,-0.0376,-0.0384,-0.0354,-0.0337,-0.0318,-0.0309,-0.0244,-0.0249,-0.0246,-0.0182,-0.0133,-0.0119,-0.0107,-0.0059,-0.0043,-0.0239,-0.0239,-0.0239,0,-0.0472,-0.0445,-0.045,-0.0427,-0.041,-0.0419,-0.0388,-0.0373,-0.0355,-0.0333,-0.035,-0.0295,-0.0295,-0.0234,-0.0213,-0.0222,-0.02,-0.0224,-0.0121,-0.0108,-0.0097,-0.0051,-0.0034,-0.0235,-0.0235,-0.0236,-0.0236,0,-0.0422,-0.0395,-0.0375,-0.0351,-0.0333,-0.0304,-0.0294,-0.0266,-0.0257,-0.0246,-0.0189,-0.0184,-0.0149,-0.0145,-0.0159,-0.0074,-0.0086,-0.0118,-0.0147,-0.0076,-0.0032,-0.0016,-0.0229,-0.0231,-0.0232,-0.0233,0,0,-0.0379,-0.0349,-0.0337,-0.0319,-0.0291,-0.0272,-0.022,-0.018,-0.0138,-0.0118,-0.0058,-0.0025,-0.0024,-0.0012,-0.002,0.0021,0.012,-0.0008,-0.0008,0.0041,0.0235,0.0233,0.025,0.0103,0.0106,0.0109,0.0236,0,-0.0335,-0.0287,-0.0278,-0.0218,-0.0193,-0.0179,-0.0131,-0.0093,-0.0065,-0.0009,0.0012,0.0063,0.0027,0.0053,0.0091,0.0106,0.0165,0.0089,0.0158,0.0161,0.0152,0.027,0.0146,0.025,0.0251,0.0254,0.0256,0,-0.0285,-0.0264,-0.0204,-0.016,-0.0145,-0.0104,-0.003,0.001,0.0078,0.0104,0.0157,0.0166,0.0239,0.0191,0.0282,0.0233,0.0255,0.0263,0.0267,0.0254,0.019,0.0178,0.0279,0.0283,0.0281,0.0279,0.0277,0,-0.0257,-0.0207,-0.0159,-0.0142,-0.0093,-0.0048,-0.0013,0.0054,0.0097,0.0188,0.023,0.0296,0.0342,0.0379,0.0392,0.0351,0.0483,0.0424,0.0451,0.045,0.0355,0.0341,0.0516,0.0516,0.0516,0.0516,0.0515,0,-0.0218,-0.0175,-0.0139,-0.011,-0.0046,-0.0016,0.0067,0.0112,0.0188,0.0245,0.0293,0.0345,0.0392,0.0452,0.0453,0.0515,0.054,0.0505,0.0501,0.0378,0.0365,0.0387,0.037,0.052,0.0519,0.0518,0.0518,0,-0.0186,-0.0161,-0.0107,-0.0051,-0.0028,0.0023,0.01,0.015,0.0226,0.0307,0.0343,0.0418,0.0501,0.0545,0.0617,0.0604,0.065,0.0664,0.052,0.0498,0.0571,0.0556,0.0728,0.0729,0.0731,0.0732,0.0732,0,-0.017,-0.0139,-0.007,-0.004,-0.0008,0.006,0.0102,0.0171,0.021,0.0332,0.036,0.0483,0.0518,0.064,0.0681,0.0741,0.0717,0.0651,0.0558,0.0624,0.0601,0.0585,0.0569,0.0459,0.0458,0.0457,0.0456,0,-0.0152,-0.0117,-0.0079,-0.0017,0.0034,0.0077,0.0133,0.0167,0.0244,0.0311,0.0381,0.0426,0.0556,0.0577,0.0681,0.0664,0.063,0.063,0.0762,0.0422,0.038,0.0354,0.0346,0.0445,0.0446,0.0447,0.0448,0.0448,-0.0142,-0.0114,-0.0063,-0.0001,0.0046,0.0079,0.011,0.0155,0.0212,0.0282,0.0327,0.038,0.0403,0.0519,0.0549,0.0606,0.0643,0.0555,0.0555,0.0557,0.05,0.0462,0.0533,0.0534,0.0535,0.0537,0.0538,0,-0.0152,-0.0114,-0.006,-0.0003,0.0028,0.0073,0.0116,0.0114,0.0159,0.0223,0.0264,0.0257,0.0269,0.0355,0.0453,0.0484,0.0425,0.0426,0.033,0.034,0.0349,0.0278,0.0254,0.0254,0.0254,0.0254,0,0,-0.0155,-0.0114,-0.0082,-0.0038,0.0005,0.0032,0.0056,0.0057,0.0082,0.015,0.0204,0.0162,0.0258,0.0231,0.0243,0.0289,0.0291,0.0244,0.0454,0.0343,0.0351,0.0395,0.0294,0,0,0,0,0]},{"header":{"parameterUnit":"m.s-1","parameterCategory":2,"la1":30.2991,"la2":30.254,"lo1":-89.0895,"lo2":-89.0444,"dy":0.0017,"dx":0.0017,"nx":28,"ny":28,"refTime":"2023-03-31T21:00:00:Z","depth":"2","parameterNumber":3,"parameterNumberName":"V-component_of_CURRENTS"},"data":[0,0,0,0,0,0,0,0,0,0,0,0,0,0,0,0,0,0,0,0,0,0,0,0,0,0,0,0,0,0,0,0,0,0,0,0,0,0,0,0,0,0,0,0,0,0,0,0,0,0,0,0,0,0,0,0,0,0,0.0487,0.0486,0,0.047,0.047,0.047,0.0459,0.0458,0.0458,0.0458,0.0452,0.0452,0.0452,0,0,0,0,0,0,0,0,0,0,0,0,0,0.0533,0.0533,0.0487,0.0486,0.0486,0.047,0.047,0.047,0.0459,0.0458,0.0458,0.0458,0.0452,0.0452,0.0452,0,0,0,0,0,0,0,0,0,0,0,0,0,0.0517,0.0532,0.0487,0.0477,0.0475,0.047,0.047,0.047,0.0459,0.0458,0.0458,0.0458,0.0451,0.0452,0.0452,0.0461,0,0,0.0452,0.0452,0,0,0,0,0,0,0,0,0.0517,0.0515,0.0479,0.0477,0.0476,0.0464,0.0484,0.0467,0.0459,0.0467,0.0458,0.0457,0.0456,0.0455,0.0456,0.046,0.046,0.0452,0.0452,0.0452,0.0452,0,0,0,0,0,0,0,0.0519,0.0516,0.0482,0.0478,0.0477,0.0481,0.0479,0.0481,0.0466,0.0467,0.0465,0.046,0.0455,0.0456,0.0456,0.046,0.0452,0.0452,0.0452,0.0452,0.0422,0.0421,0,0,0,0,0,0,0.0515,0.0517,0.0483,0.0481,0.0494,0.0481,0.0478,0.047,0.0466,0.0464,0.046,0.046,0.0456,0.0456,0.0456,0.0426,0.0452,0.0452,0.0452,0.0422,0.0421,0.042,0,0,0,0,0,0,0.0516,0.0512,0.0483,0.0497,0.0494,0.048,0.0472,0.047,0.0458,0.046,0.0459,0.0449,0.0456,0.0455,0.0443,0.0427,0.0452,0.0453,0.0423,0.0422,0.0421,0.0393,0,0,0,0,0,0,0.0518,0.0513,0.0507,0.0497,0.0493,0.0473,0.0472,0.047,0.0455,0.0454,0.045,0.045,0.0455,0.0443,0.0443,0.0428,0.0453,0.0425,0.0423,0.0421,0.0395,0.039,0.0387,0,0,0,0,0,0.052,0.0512,0.0507,0.0503,0.0485,0.0472,0.047,0.0461,0.0455,0.0449,0.0442,0.045,0.0432,0.0442,0.0443,0.0427,0.0425,0.0423,0.0421,0.0396,0.0391,0.0387,0,0,0,0,0,0,0.0532,0.051,0.0504,0.049,0.0478,0.0469,0.0463,0.0455,0.0445,0.0442,0.0443,0.0442,0.0424,0.0429,0.044,0.0412,0.0428,0.0426,0.0409,0.0404,0.04,0.0399,0.0453,0,0,0,0,0,0.0531,0.0518,0.0501,0.049,0.0483,0.0471,0.0464,0.0456,0.0446,0.0441,0.0435,0.0427,0.0419,0.0414,0.041,0.0399,0.0401,0.0387,0.0383,0.0379,0.0377,0.0364,0.0359,0.0414,0.0414,0.0414,0,0,0.0535,0.0519,0.0513,0.0492,0.0483,0.0472,0.0466,0.0452,0.044,0.0443,0.0423,0.0415,0.0412,0.0396,0.0388,0.0397,0.0364,0.0377,0.0374,0.0374,0.0361,0.0356,0.0351,0.0412,0.0413,0.0413,0,0,0.0536,0.0519,0.051,0.0498,0.0478,0.0469,0.0461,0.0442,0.043,0.0411,0.0406,0.0385,0.0377,0.0367,0.0362,0.0335,0.0344,0.0331,0.0311,0.0298,0.0293,0.0289,0.0284,0.028,0.0329,0.0329,0.0329,0,0.0543,0.0525,0.0506,0.0495,0.0486,0.0465,0.0457,0.0441,0.0419,0.0408,0.0401,0.0369,0.0362,0.034,0.0324,0.0326,0.0323,0.033,0.0293,0.0289,0.0286,0.0281,0.0277,0.0327,0.0328,0.0328,0.0328,0,0.0538,0.0524,0.0517,0.0494,0.0483,0.0471,0.0447,0.0429,0.0408,0.0392,0.0359,0.0341,0.0322,0.0311,0.0307,0.0275,0.0283,0.0291,0.0307,0.0279,0.0275,0.0272,0.0325,0.0326,0.0326,0.0326,0,0,0.0564,0.0521,0.052,0.0513,0.0481,0.0476,0.0449,0.0424,0.0414,0.0372,0.0355,0.0311,0.0294,0.0286,0.0273,0.0253,0.0219,0.0256,0.0256,0.0254,0.0193,0.019,0.0186,0.022,0.0219,0.0218,0.0201,0,0.0569,0.0547,0.0523,0.0512,0.0505,0.0476,0.0459,0.0433,0.0408,0.0386,0.0342,0.032,0.0287,0.0277,0.0245,0.0229,0.0208,0.0224,0.0218,0.0218,0.0221,0.018,0.0168,0.015,0.0197,0.0197,0.0196,0,0.0581,0.0564,0.0547,0.0526,0.0521,0.0509,0.0488,0.0469,0.0428,0.0409,0.0364,0.0334,0.0279,0.0268,0.0204,0.0215,0.0197,0.0184,0.0183,0.0188,0.0207,0.0186,0.0142,0.019,0.0191,0.0191,0.0191,0,0.0622,0.0589,0.0575,0.0567,0.0534,0.0525,0.0508,0.0476,0.0469,0.0421,0.0416,0.0342,0.0318,0.0264,0.0207,0.0207,0.0156,0.016,0.0141,0.0142,0.0133,0.0134,0.0125,0.0125,0.0125,0.0125,0.0125,0,0.0645,0.0648,0.0592,0.0591,0.0589,0.0554,0.0552,0.0529,0.0503,0.0498,0.0428,0.042,0.0316,0.0269,0.0216,0.0158,0.0158,0.0127,0.013,0.0123,0.0123,0.0163,0.0168,0.0124,0.0125,0.0125,0.0125,0,0.0711,0.0667,0.0663,0.062,0.061,0.0612,0.059,0.0592,0.0557,0.0551,0.0535,0.0473,0.04,0.0307,0.0231,0.0181,0.0125,0.0114,0.0112,0.0114,0.0119,0.0122,0.0082,0.0081,0.0081,0.0081,0.008,0,0.0751,0.0748,0.0699,0.0695,0.0678,0.0667,0.0665,0.0627,0.0627,0.0592,0.0598,0.0526,0.0483,0.036,0.0236,0.0128,0.0134,0.0077,0.0067,0.0104,0.0111,0.0115,0.0119,0.0046,0.0046,0.0046,0.0045,0,0.0841,0.0809,0.079,0.0767,0.0758,0.0749,0.0737,0.0742,0.0697,0.0703,0.0695,0.066,0.051,0.0368,0.0208,0.0153,0.0082,0.0066,0.0099,0.0062,0.007,0.0078,0.0082,0.0041,0.0042,0.0042,0.0042,0.0042,0.0914,0.0905,0.0857,0.0844,0.083,0.0816,0.0821,0.0813,0.0823,0.0777,0.0751,0.0652,0.0455,0.0205,0.0132,0.0062,0.0068,0.0031,0.0033,0.0035,0.0036,0.0043,0.001,0.0011,0.0011,0.0011,0.0011,0,0.0984,0.0948,0.0942,0.0902,0.0896,0.0866,0.0861,0.0855,0.0875,0.0773,0.0739,0.0472,0.0341,0.0177,0.0058,-0.0006,0.0003,-0.0007,-0.0002,0.0002,0.0005,0.0005,-0.0029,-0.0029,-0.0029,-0.0029,0,0,0.101,0.0996,0.0969,0.096,0.0938,0.0925,0.0919,0.0909,0.0836,0.0692,0.056,0.0416,0.0238,0.0107,0.0031,0.0012,0.0033,0.0019,0.0054,0.0072,0.0076,0.0024,0.0028,0,0,0,0,0]}],[{"header":{"parameterUnit":"m.s-1","parameterCategory":2,"la1":30.2991,"la2":30.254,"lo1":-89.0895,"lo2":-89.0444,"dy":0.0017,"dx":0.0017,"nx":28,"ny":28,"refTime":"2023-03-31T21:00:00:Z","depth":"4","parameterNumber":2,"parameterNumberName":"U-component_of_CURRENTS"},"data":[0,0,0,0,0,0,0,0,0,0,0,0,0,0,0,0,0,0,0,0,0,0,0,0,0,0,0,0,0,0,0,0,0,0,0,0,0,0,0,0,0,0,0,0,0,0,0,0,0,0,0,0,0,0,0,0,0,0,-0.043,-0.043,0,-0.045,-0.045,-0.045,-0.0459,-0.0459,-0.0459,-0.0459,-0.0503,-0.0504,-0.0505,0,0,0,0,0,0,0,0,0,0,0,0,0,-0.0414,-0.0415,-0.043,-0.043,-0.043,-0.045,-0.045,-0.0451,-0.0459,-0.0459,-0.0459,-0.0459,-0.0502,-0.0504,-0.0505,0,0,0,0,0,0,0,0,0,0,0,0,0,-0.0428,-0.0415,-0.043,-0.0436,-0.0436,-0.045,-0.045,-0.0451,-0.0459,-0.0459,-0.0459,-0.0458,-0.0502,-0.0504,-0.0505,-0.0522,0,0,-0.0511,-0.0512,0,0,0,0,0,0,0,0,-0.0427,-0.0428,-0.0435,-0.0435,-0.0436,-0.0451,-0.0461,-0.0475,-0.0459,-0.0452,-0.0459,-0.0458,-0.0487,-0.049,-0.0496,-0.0524,-0.0526,-0.0512,-0.0513,-0.0514,-0.0514,0,0,0,0,0,0,0,-0.0426,-0.0427,-0.0439,-0.0435,-0.0436,-0.0443,-0.0444,-0.0464,-0.0472,-0.0452,-0.0453,-0.0453,-0.0487,-0.0494,-0.0497,-0.0526,-0.0512,-0.0513,-0.0514,-0.0515,-0.0586,-0.0587,0,0,0,0,0,0,-0.042,-0.0427,-0.0438,-0.0439,-0.0429,-0.0443,-0.0445,-0.0447,-0.0471,-0.0474,-0.0453,-0.0453,-0.049,-0.0494,-0.0498,-0.0527,-0.0514,-0.0515,-0.0517,-0.0585,-0.0586,-0.0587,0,0,0,0,0,0,-0.042,-0.0421,-0.0437,-0.0432,-0.0435,-0.0443,-0.0446,-0.0448,-0.0456,-0.0471,-0.0475,-0.046,-0.049,-0.0496,-0.0518,-0.0528,-0.0516,-0.0518,-0.0585,-0.0586,-0.0587,-0.0579,0,0,0,0,0,0,-0.042,-0.0421,-0.0424,-0.0432,-0.0435,-0.0445,-0.0446,-0.0448,-0.0456,-0.0456,-0.0478,-0.0482,-0.0491,-0.0515,-0.052,-0.0531,-0.052,-0.0584,-0.0585,-0.0586,-0.0579,-0.058,-0.0581,0,0,0,0,0,-0.0419,-0.0421,-0.0424,-0.0426,-0.0437,-0.0445,-0.0447,-0.0453,-0.0456,-0.046,-0.0476,-0.0481,-0.0527,-0.0517,-0.0523,-0.0534,-0.0583,-0.0585,-0.0586,-0.0578,-0.058,-0.0581,0,0,0,0,0,0,-0.0417,-0.0423,-0.0426,-0.043,-0.0437,-0.0445,-0.045,-0.0456,-0.0472,-0.0475,-0.0489,-0.0494,-0.0519,-0.053,-0.0518,-0.056,-0.0557,-0.056,-0.0549,-0.0551,-0.0552,-0.0538,-0.0521,0,0,0,0,0,-0.0418,-0.0421,-0.0427,-0.0432,-0.0434,-0.0444,-0.0449,-0.0454,-0.0466,-0.0473,-0.0487,-0.0508,-0.0531,-0.0542,-0.0561,-0.0583,-0.0584,-0.0596,-0.0597,-0.0598,-0.0592,-0.0611,-0.0612,-0.0592,-0.0592,-0.0592,0,0,-0.0419,-0.0422,-0.0425,-0.0432,-0.0438,-0.0443,-0.0447,-0.0454,-0.0462,-0.0476,-0.0494,-0.0513,-0.0538,-0.0562,-0.0574,-0.0571,-0.0603,-0.06,-0.06,-0.0593,-0.0612,-0.0614,-0.0616,-0.0593,-0.0593,-0.0593,0,0,-0.0418,-0.0425,-0.0426,-0.0431,-0.0439,-0.0446,-0.0448,-0.0459,-0.0466,-0.0485,-0.0501,-0.0522,-0.0554,-0.0571,-0.0585,-0.0607,-0.061,-0.0619,-0.0613,-0.0632,-0.0633,-0.0634,-0.0628,-0.0629,-0.0618,-0.0618,-0.0618,0,-0.042,-0.042,-0.0428,-0.043,-0.0434,-0.0446,-0.0449,-0.0461,-0.0479,-0.0485,-0.049,-0.0538,-0.0558,-0.0587,-0.0595,-0.0608,-0.0612,-0.0603,-0.0632,-0.0633,-0.0634,-0.0628,-0.0629,-0.0618,-0.0618,-0.0618,-0.0618,0,-0.0417,-0.042,-0.0422,-0.0429,-0.0436,-0.0441,-0.0454,-0.0465,-0.0477,-0.0487,-0.0515,-0.0542,-0.0567,-0.0583,-0.0595,-0.062,-0.0616,-0.0631,-0.0623,-0.0636,-0.0628,-0.0629,-0.0618,-0.0618,-0.0618,-0.0618,0,0,-0.0414,-0.0418,-0.0419,-0.0419,-0.0435,-0.0439,-0.0455,-0.0468,-0.0476,-0.0498,-0.0508,-0.0551,-0.056,-0.0577,-0.0599,-0.0616,-0.0628,-0.0626,-0.0627,-0.0611,-0.0652,-0.0535,-0.0525,-0.065,-0.065,-0.065,-0.0638,0,-0.0409,-0.0406,-0.0414,-0.0418,-0.0417,-0.0435,-0.0447,-0.0464,-0.0479,-0.0493,-0.0521,-0.0541,-0.056,-0.0573,-0.0594,-0.0625,-0.0632,-0.0628,-0.065,-0.065,-0.0538,-0.0523,-0.0652,-0.0639,-0.0639,-0.0639,-0.0639,0,-0.0403,-0.04,-0.0399,-0.0405,-0.0408,-0.0414,-0.0431,-0.0443,-0.0468,-0.0481,-0.0504,-0.0524,-0.0554,-0.0568,-0.0611,-0.0609,-0.0625,-0.0644,-0.0644,-0.0536,-0.0534,-0.0628,-0.0641,-0.0641,-0.0641,-0.0641,-0.0641,0,-0.0389,-0.0391,-0.0388,-0.0391,-0.0402,-0.0406,-0.0414,-0.0437,-0.0444,-0.047,-0.0475,-0.0515,-0.0528,-0.0566,-0.0592,-0.061,-0.0625,-0.0657,-0.0562,-0.0554,-0.0668,-0.0667,-0.0677,-0.0677,-0.0677,-0.0677,-0.0677,0,-0.0377,-0.0376,-0.0378,-0.0376,-0.0372,-0.0388,-0.039,-0.0405,-0.0424,-0.0424,-0.0463,-0.0463,-0.053,-0.0543,-0.0579,-0.0551,-0.0613,-0.0544,-0.0539,-0.0665,-0.0664,-0.0668,-0.0667,-0.0677,-0.0677,-0.0677,-0.0677,0,-0.0363,-0.0366,-0.0362,-0.0366,-0.0364,-0.0362,-0.0368,-0.0368,-0.0391,-0.0391,-0.0397,-0.0427,-0.043,-0.047,-0.0517,-0.0509,-0.0516,-0.0492,-0.0592,-0.0597,-0.044,-0.0439,-0.039,-0.0386,-0.0382,-0.0379,-0.0377,0,-0.0354,-0.0351,-0.0349,-0.0341,-0.034,-0.0336,-0.0331,-0.035,-0.0348,-0.0359,-0.0352,-0.0352,-0.0365,-0.0336,-0.0384,-0.0401,-0.0405,-0.04,-0.0443,-0.0407,-0.0409,-0.0414,-0.0418,-0.0371,-0.037,-0.0369,-0.0368,0,-0.0338,-0.0343,-0.0339,-0.0319,-0.0307,-0.0291,-0.0283,-0.0276,-0.0291,-0.0316,-0.0289,-0.0276,-0.0256,-0.0274,-0.0264,-0.0293,-0.0403,-0.0363,-0.0372,-0.0412,-0.0383,-0.039,-0.0398,-0.0355,-0.0357,-0.0358,-0.0359,0,-0.033,-0.0322,-0.0315,-0.0295,-0.0275,-0.0239,-0.0242,-0.0224,-0.0222,-0.0239,-0.0223,-0.0227,-0.0246,-0.0214,-0.022,-0.0208,-0.0222,-0.0236,-0.0252,-0.0266,-0.0228,-0.0173,-0.006,0,0,0,0,0,-0.0316,-0.0302,-0.0286,-0.0251,-0.0227,-0.0211,-0.0205,-0.0213,-0.0225,-0.0191,-0.0205,-0.0184,-0.0152,-0.0158,-0.0124,-0.0159,-0.0225,-0.0116,-0.0251,-0.0285,-0.03,-0.0263,0,0,0,0,0,0,-0.0304,-0.0293,-0.0281,-0.0216,-0.018,-0.0144,-0.0137,-0.0146,-0.0132,-0.0152,-0.0144,-0.015,-0.0138,-0.0168,-0.0115,-0.0113,-0.0186,-0.0119,-0.0117,-0.0277,-0.029,-0.0302,-0.027,0,0,0,0,0]},{"header":{"parameterUnit":"m.s-1","parameterCategory":2,"la1":30.2991,"la2":30.254,"lo1":-89.0895,"lo2":-89.0444,"dy":0.0017,"dx":0.0017,"nx":28,"ny":28,"refTime":"2023-03-31T21:00:00:Z","depth":"4","parameterNumber":3,"parameterNumberName":"V-component_of_CURRENTS"},"data":[0,0,0,0,0,0,0,0,0,0,0,0,0,0,0,0,0,0,0,0,0,0,0,0,0,0,0,0,0,0,0,0,0,0,0,0,0,0,0,0,0,0,0,0,0,0,0,0,0,0,0,0,0,0,0,0,0,0,-0.0132,-0.0132,0,-0.0163,-0.0163,-0.0164,-0.016,-0.0159,-0.0159,-0.0158,-0.018,-0.0181,-0.0183,0,0,0,0,0,0,0,0,0,0,0,0,0,-0.0089,-0.009,-0.0132,-0.0132,-0.0133,-0.0163,-0.0163,-0.0164,-0.016,-0.0159,-0.0158,-0.0158,-0.018,-0.0181,-0.0183,0,0,0,0,0,0,0,0,0,0,0,0,0,-0.0114,-0.009,-0.0132,-0.0133,-0.0134,-0.0163,-0.0163,-0.0164,-0.016,-0.0159,-0.0158,-0.0157,-0.0179,-0.0181,-0.0183,-0.0213,0,0,-0.0188,-0.0189,0,0,0,0,0,0,0,0,-0.0113,-0.0116,-0.0133,-0.0133,-0.0134,-0.0155,-0.0156,-0.018,-0.016,-0.0152,-0.0158,-0.0157,-0.0171,-0.0173,-0.0183,-0.0214,-0.0215,-0.0189,-0.019,-0.019,-0.0191,0,0,0,0,0,0,0,-0.0111,-0.0115,-0.0146,-0.0133,-0.0134,-0.0139,-0.0141,-0.0161,-0.0167,-0.0152,-0.0152,-0.0153,-0.0171,-0.0182,-0.0184,-0.0215,-0.0188,-0.019,-0.0191,-0.0192,-0.0269,-0.0269,0,0,0,0,0,0,-0.0105,-0.0113,-0.0145,-0.0147,-0.0119,-0.014,-0.0143,-0.015,-0.0167,-0.0168,-0.0154,-0.0153,-0.0179,-0.0182,-0.0185,-0.0222,-0.019,-0.0192,-0.0193,-0.0268,-0.0269,-0.027,0,0,0,0,0,0,-0.0104,-0.0107,-0.0144,-0.0129,-0.0133,-0.0141,-0.015,-0.0152,-0.0162,-0.0168,-0.0169,-0.0163,-0.0179,-0.0182,-0.0209,-0.0223,-0.0193,-0.0194,-0.0266,-0.0268,-0.0269,-0.0297,0,0,0,0,0,0,-0.0102,-0.0107,-0.0114,-0.0129,-0.0134,-0.0164,-0.0151,-0.0153,-0.0164,-0.0163,-0.0177,-0.0178,-0.0178,-0.0207,-0.0211,-0.0225,-0.0196,-0.0265,-0.0267,-0.0269,-0.0295,-0.0299,-0.0303,0,0,0,0,0,-0.0101,-0.0115,-0.0115,-0.0118,-0.0143,-0.0164,-0.0168,-0.0171,-0.0165,-0.0177,-0.0187,-0.0177,-0.0221,-0.021,-0.0214,-0.0229,-0.0264,-0.0267,-0.0269,-0.0293,-0.0298,-0.0303,0,0,0,0,0,0,-0.0105,-0.0117,-0.0116,-0.0134,-0.0148,-0.0163,-0.0174,-0.0176,-0.0195,-0.0194,-0.0196,-0.0199,-0.0228,-0.0228,-0.0215,-0.0256,-0.0239,-0.0242,-0.0256,-0.0261,-0.0265,-0.0264,-0.0197,0,0,0,0,0,-0.0108,-0.012,-0.0132,-0.0148,-0.0155,-0.0166,-0.0176,-0.0179,-0.0194,-0.0201,-0.0212,-0.0224,-0.0243,-0.025,-0.0268,-0.0294,-0.0291,-0.0304,-0.0309,-0.0312,-0.0315,-0.0332,-0.0338,-0.0277,-0.0277,-0.0277,0,0,-0.0114,-0.0122,-0.0129,-0.0149,-0.016,-0.018,-0.017,-0.0189,-0.0207,-0.0202,-0.0234,-0.0244,-0.0255,-0.0284,-0.0296,-0.0283,-0.0327,-0.0315,-0.0317,-0.0319,-0.0335,-0.0341,-0.0346,-0.0278,-0.0278,-0.0278,0,0,-0.0131,-0.0139,-0.0153,-0.0167,-0.0183,-0.0194,-0.0199,-0.0219,-0.0229,-0.0261,-0.0262,-0.0283,-0.031,-0.0322,-0.033,-0.0369,-0.0352,-0.0368,-0.0384,-0.0401,-0.0406,-0.041,-0.0407,-0.0411,-0.0365,-0.0365,-0.0365,0,-0.0136,-0.0156,-0.0162,-0.018,-0.0195,-0.02,-0.0223,-0.0239,-0.0267,-0.0282,-0.0273,-0.0322,-0.033,-0.0365,-0.0373,-0.0379,-0.0375,-0.0363,-0.0405,-0.041,-0.0414,-0.0409,-0.0413,-0.0366,-0.0366,-0.0366,-0.0366,0,-0.0161,-0.0179,-0.0191,-0.0214,-0.0234,-0.0255,-0.0274,-0.0296,-0.0307,-0.0321,-0.0359,-0.0373,-0.0398,-0.0403,-0.0399,-0.0431,-0.0415,-0.0412,-0.0391,-0.0421,-0.0415,-0.0418,-0.0369,-0.0368,-0.0368,-0.0367,0,0,-0.0168,-0.02,-0.0205,-0.0222,-0.0253,-0.0273,-0.0307,-0.0341,-0.0365,-0.0387,-0.042,-0.0448,-0.0447,-0.0456,-0.0455,-0.0464,-0.0485,-0.0445,-0.0445,-0.0437,-0.0505,-0.0443,-0.044,-0.0485,-0.0486,-0.0487,-0.0486,0,-0.0186,-0.022,-0.0236,-0.0278,-0.0299,-0.0321,-0.0353,-0.0385,-0.0408,-0.0441,-0.0455,-0.0486,-0.0469,-0.048,-0.0488,-0.0494,-0.0496,-0.0484,-0.048,-0.048,-0.0418,-0.0443,-0.049,-0.0488,-0.0489,-0.049,-0.049,0,-0.0206,-0.0226,-0.0263,-0.0308,-0.032,-0.0348,-0.04,-0.0429,-0.0472,-0.0489,-0.0516,-0.0526,-0.0552,-0.0529,-0.0546,-0.0536,-0.0521,-0.0516,-0.0515,-0.0451,-0.0424,-0.0454,-0.0496,-0.0496,-0.0495,-0.0495,-0.0494,0,-0.0206,-0.0249,-0.0278,-0.0293,-0.0342,-0.0368,-0.0397,-0.0444,-0.0473,-0.0519,-0.0541,-0.057,-0.0587,-0.0585,-0.0568,-0.056,-0.0574,-0.0566,-0.0494,-0.0489,-0.0532,-0.0527,-0.0573,-0.0573,-0.0573,-0.0573,-0.0573,0,-0.022,-0.0247,-0.0279,-0.0296,-0.0339,-0.0371,-0.042,-0.0452,-0.0498,-0.0531,-0.0559,-0.0582,-0.0601,-0.0608,-0.0586,-0.0547,-0.0589,-0.05,-0.0489,-0.0542,-0.0539,-0.0533,-0.0529,-0.0573,-0.0573,-0.0573,-0.0573,0,-0.0222,-0.0241,-0.0277,-0.0322,-0.034,-0.0369,-0.043,-0.0463,-0.0502,-0.0546,-0.0561,-0.0602,-0.0598,-0.0598,-0.0597,-0.0564,-0.0539,-0.051,-0.056,-0.0551,-0.0437,-0.0434,-0.0438,-0.0435,-0.0434,-0.0432,-0.0431,0,-0.023,-0.0244,-0.0288,-0.0307,-0.033,-0.0375,-0.041,-0.0461,-0.049,-0.0546,-0.0562,-0.0581,-0.0592,-0.0546,-0.0544,-0.05,-0.0481,-0.0475,-0.0461,-0.0436,-0.0425,-0.0425,-0.0425,-0.0428,-0.0428,-0.0427,-0.0427,0,-0.0243,-0.0252,-0.0277,-0.0307,-0.0342,-0.0389,-0.0434,-0.0453,-0.0505,-0.0538,-0.0548,-0.054,-0.0528,-0.051,-0.0477,-0.0445,-0.049,-0.0456,-0.046,-0.0446,-0.0425,-0.0416,-0.0417,-0.0421,-0.0422,-0.0422,-0.0422,0,-0.0251,-0.0264,-0.0284,-0.0309,-0.0349,-0.0389,-0.042,-0.0447,-0.0478,-0.0521,-0.0519,-0.052,-0.0534,-0.0479,-0.0451,-0.0414,-0.0395,-0.0385,-0.0392,-0.0398,-0.0381,-0.0347,-0.0313,0,0,0,0,0,-0.0257,-0.0263,-0.0287,-0.032,-0.0355,-0.0376,-0.043,-0.0457,-0.0493,-0.0486,-0.0499,-0.0478,-0.0435,-0.0435,-0.0379,-0.0413,-0.0394,-0.0348,-0.0387,-0.0386,-0.0394,-0.0373,0,0,0,0,0,0,-0.0263,-0.0281,-0.0281,-0.0313,-0.0331,-0.038,-0.0409,-0.0441,-0.0435,-0.046,-0.0435,-0.0441,-0.0401,-0.0449,-0.0367,-0.0361,-0.0374,-0.0337,-0.0336,-0.0382,-0.0389,-0.0395,-0.0376,0,0,0,0,0]}]]